EA6FG Weather Reports


time (UTC)temp
C
wind
direction
speed
KPH
gust
KPH
rain 1hr
cm
rain 24hr
cm
rain mn
cm
humidity
%
barometer
mb
20260506185101 16 0.0 0.0 0.00 2.49 2.49 90 1010.6
20260506184118 16 203 0.0 3.2 0.00 2.49 2.49 89 1010.3
20260506183055 17 0.0 0.0 0.00 2.49 2.49 87 1010.3
20260506182052 17 0.0 0.0 0.00 2.49 2.49 84 1010.3
20260506181049 18 0.0 3.2 0.00 2.49 2.49 80 1010.3
20260506180046 18 0.0 3.2 0.00 2.49 2.49 80 1010.2
20260506175043 18 0.0 3.2 0.00 2.49 2.49 79 1010.2
20260506174101 18 0.0 0.0 0.00 2.49 2.49 75 1010.1
20260506173038 18 203 0.0 3.2 0.00 2.49 2.49 78 1010.1
20260506172054 18 203 1.6 3.2 0.00 2.49 2.49 79 1010.2
20260506171031 17 203 1.6 6.4 0.00 2.49 2.49 83 1010.2
20260506170028 16 165 3.2 6.4 0.00 2.49 2.49 90 1010.1
20260506165045 16 180 1.6 6.4 0.00 2.49 2.49 93 1010.1
20260506164022 16 180 1.6 6.4 0.00 2.49 2.49 94 1010.1
20260506163040 16 154 3.2 6.4 0.03 2.49 2.49 95 1010.1
20260506162017 16 135 0.0 3.2 0.03 2.49 2.49 96 1010.1
20260506161135 16 131 1.6 3.2 0.03 2.49 2.49 96 1010.1
20260506160110 16 113 0.0 3.2 0.03 2.49 2.49 97 1010.0
20260506155108 16 113 0.0 3.2 0.03 2.49 2.49 97 1010.0
20260506154124 16 45 0.0 3.2 0.05 2.49 2.49 97 1010.1
20260506153101 16 45 0.0 3.2 0.15 2.46 2.46 97 1010.1
20260506152059 15 45 0.0 3.2 0.38 2.46 2.46 97 1010.1
20260506151056 15 45 1.6 3.2 0.71 2.46 2.46 97 1010.1
20260506150052 15 45 0.0 3.2 0.86 2.46 2.46 97 1010.0
20260506145050 15 355 1.6 6.4 1.65 2.46 2.46 97 1010.2
20260506144046 15 23 1.6 3.2 2.03 2.44 2.44 97 1010.4
20260506143043 15 31 1.6 3.2 2.21 2.31 2.31 96 1010.7
20260506142041 15 45 0.0 3.2 2.06 2.06 2.06 96 1010.6
20260506141038 15 45 1.6 3.2 1.75 1.75 1.75 95 1010.7
20260506140035 15 45 1.6 6.4 1.60 1.60 1.60 95 1010.7
20260506135031 15 58 6.4 17.7 0.81 0.81 0.81 93 1010.8
20260506134029 16 84 3.2 6.4 0.38 0.38 0.38 90 1010.3
20260506133026 18 59 3.2 11.3 0.10 0.10 0.10 84 1010.4
20260506132104 20 104 1.6 6.4 0.00 0.00 0.00 72 1010.6
20260506131020 19 70 3.2 12.9 0.00 0.00 0.00 68 1010.3
20260506130038 20 95 6.4 12.9 0.00 0.00 0.00 70 1010.4
20260506125114 21 207 6.4 12.9 0.00 0.00 0.00 72 1010.2
20260506124111 22 175 6.4 14.5 0.00 0.00 0.00 69 1010.1
20260506123108 22 231 6.4 14.5 0.00 0.00 0.00 65 1010.0
20260506122105 23 200 6.4 14.5 0.00 0.00 0.00 59 1009.8
20260506121103 22 200 6.4 12.9 0.00 0.00 0.00 60 1009.6
20260506120059 22 267 3.2 6.4 0.00 0.00 0.00 59 1009.7
20260506115056 23 280 1.6 6.4 0.00 0.00 0.00 58 1009.6
20260506114053 21 293 3.2 6.4 0.00 0.00 0.00 64 1009.7
20260506113050 21 295 3.2 6.4 0.00 0.00 0.00 66 1009.9
20260506112048 21 306 6.4 12.9 0.00 0.00 0.00 67 1009.9
20260506111045 21 275 1.6 6.4 0.00 0.00 0.00 64 1010.0
20260506110041 22 293 4.8 9.7 0.00 0.00 0.00 62 1010.0
20260506105039 22 249 3.2 12.9 0.00 0.00 0.00 61 1010.2
20260506104056 22 261 1.6 3.2 0.00 0.00 0.00 58 1010.2
20260506103032 22 270 3.2 6.4 0.00 0.00 0.00 60 1010.3
20260506102050 21 203 1.6 6.4 0.00 0.00 0.00 56 1010.2
20260506101027 21 225 1.6 3.2 0.00 0.00 0.00 59 1010.5
20260506100044 21 203 3.2 6.4 0.00 0.00 0.00 60 1010.4
20260506095021 22 200 3.2 6.4 0.00 0.00 0.00 58 1010.4
20260506094017 21 219 3.2 6.4 0.00 0.00 0.00 58 1010.3
20260506093136 22 203 1.6 6.4 0.00 0.00 0.00 57 1010.3
20260506092112 22 203 1.6 6.4 0.00 0.00 0.00 58 1010.4
20260506091209 22 203 1.6 6.4 0.00 0.00 0.00 57 1010.3
20260506090106 22 180 1.6 3.2 0.00 0.00 0.00 60 1010.4
20260506085103 22 180 1.6 3.2 0.00 0.00 0.00 60 1010.4
20260506084100 21 180 1.6 6.4 0.00 0.00 0.00 62 1010.5
20260506083056 21 203 0.0 3.2 0.00 0.00 0.00 64 1010.6
20260506082054 21 203 1.6 6.4 0.00 0.00 0.00 66 1010.7
20260506081050 20 216 1.6 3.2 0.00 0.00 0.00 69 1010.6
20260506072036 19 203 0.0 3.2 0.00 0.00 0.00 71 1010.5
20260506071113 19 203 0.0 3.2 0.00 0.00 0.00 73 1010.5
20260506062017 15 225 0.0 3.2 0.00 0.00 0.00 90 1010.8
20260506061115 13 0.0 0.0 0.00 0.00 0.00 91 1010.8
20260506060112 13 248 0.0 3.2 0.00 0.00 0.00 92 1010.8
20260506051057 11 0.0 3.2 0.00 0.00 0.00 92 1010.3
20260506050115 11 270 0.0 3.2 0.00 0.00 0.00 92 1010.0
20260506045051 11 248 1.6 6.4 0.00 0.00 0.00 94 1009.9
20260506044109 11 0.0 3.2 0.00 0.00 0.00 94 1009.8
20260506043045 11 270 0.0 3.2 0.00 0.00 0.00 94 1009.7
20260506042043 11 0.0 3.2 0.00 0.00 0.00 94 1009.6
20260506041059 11 0.0 0.0 0.00 0.00 0.00 94 1009.5
20260506040036 11 0.0 0.0 0.00 0.00 0.00 93 1009.5
20260506035033 11 0.0 3.2 0.00 0.00 0.00 93 1009.6
20260506034030 11 0.0 3.2 0.00 0.00 0.00 93 1009.5
20260506033047 11 0.0 0.0 0.00 0.00 0.00 92 1009.4
20260506032104 12 0.0 0.0 0.00 0.00 0.00 92 1009.4
20260506031022 12 270 0.0 3.2 0.00 0.00 0.00 92 1009.3
20260506030018 12 270 0.0 3.2 0.00 0.00 0.00 92 1009.2
20260506025015 12 0.0 0.0 0.00 0.00 0.00 91 1009.3
20260506024112 12 0.0 0.0 0.00 0.00 0.00 91 1009.3
20260506023131 12 259 0.0 3.2 0.00 0.00 0.00 92 1009.4
20260506022127 13 248 0.0 3.2 0.00 0.00 0.00 92 1009.3
20260506021103 13 0.0 0.0 0.00 0.00 0.00 92 1009.3
20260506020101 13 0.0 3.2 0.00 0.00 0.00 92 1009.3
20260506015057 13 0.0 0.0 0.00 0.00 0.00 92 1009.4
20260506014054 13 249 0.0 3.2 0.00 0.00 0.00 91 1009.4
20260506013051 13 0.0 0.0 0.00 0.00 0.00 91 1009.4
20260506012049 13 270 0.0 3.2 0.00 0.00 0.00 90 1009.4
20260506011046 14 0.0 0.0 0.00 0.00 0.00 90 1009.4
20260506010043 15 0.0 3.2 0.00 0.00 0.00 89 1009.5
20260506005039 15 0.0 3.2 0.00 0.00 0.00 89 1009.6
20260506004057 15 270 0.0 3.2 0.00 0.00 0.00 91 1009.7
20260506003054 15 270 0.0 3.2 0.00 0.00 0.00 91 1009.9
20260506002030 15 0.0 0.0 0.00 0.00 0.00 91 1010.0
20260506001027 15 0.0 3.2 0.00 0.00 0.00 89 1009.9
20260506000024 15 270 0.0 3.2 0.00 0.00 0.00 89 1010.0
20260505235022 15 270 0.0 3.2 0.00 0.00 0.00 89 1010.3
20260505234020 15 0.0 3.2 0.00 0.00 0.00 90 1010.2
20260505233016 16 270 0.0 3.2 0.00 0.00 0.00 91 1010.2
20260505232113 16 270 0.0 3.2 0.00 0.00 0.00 91 1010.0
20260505231110 15 270 1.6 3.2 0.00 0.00 0.00 92 1010.1
20260505230107 15 0.0 0.0 0.00 0.00 0.00 93 1010.0
20260505225124 15 203 0.0 3.2 0.00 0.00 0.00 93 1010.0
20260505224101 15 203 0.0 3.2 0.00 0.00 0.00 94 1009.9
20260505223058 15 203 1.6 6.4 0.00 0.00 0.00 95 1010.0
20260505222055 15 0.0 0.0 0.00 0.00 0.00 95 1010.1
20260505221052 16 0.0 0.0 0.00 0.00 0.00 95 1010.4
20260505220109 16 0.0 3.2 0.00 0.00 0.00 95 1010.5
20260505215046 16 203 0.0 3.2 0.00 0.00 0.00 95 1010.5
20260505214043 16 0.0 3.2 0.00 0.00 0.00 95 1010.5
20260505213040 16 0.0 3.2 0.00 0.00 0.00 95 1010.5
20260505212037 16 0.0 3.2 0.00 0.00 0.00 94 1010.7
20260505211034 16 203 0.0 3.2 0.00 0.00 0.00 94 1010.6
20260505210111 17 0.0 3.2 0.00 0.00 0.00 94 1010.6
20260505205028 17 0.0 0.0 0.00 0.00 0.00 93 1010.5
20260505204025 17 0.0 3.2 0.00 0.00 0.00 93 1010.5
20260505203042 17 203 1.6 3.2 0.00 0.00 0.00 92 1010.3
20260505202019 17 203 0.0 3.2 0.00 0.00 0.00 92 1010.3
20260505201016 17 203 0.0 3.2 0.00 0.00 0.00 92 1009.9
20260505200113 17 180 0.0 3.2 0.00 0.00 0.00 92 1009.8
20260505195110 17 180 0.0 3.2 0.00 0.00 0.00 92 1009.7
20260505194107 17 193 1.6 3.2 0.00 0.00 0.00 92 1009.6
20260505193105 17 199 3.2 6.4 0.00 0.00 0.00 91 1009.5
20260505192102 18 180 1.6 3.2 0.00 0.00 0.00 91 1009.3
20260505191058 18 180 1.6 3.2 0.00 0.00 0.00 90 1009.2
20260505190116 18 180 1.6 3.2 0.00 0.00 0.00 90 1009.1